When you browse on this site, cookies collect data to enhance your experience and personalize the content and advertising you see.
Visit our Privacy Policy to learn more. By continuing to use the site, you agree to this use of cookies and data.
  • In Latvia
  • List of Countries
  • For 7 days
  • Water Temperature
  • Weather Map
  • Weather Widgets
  • user-avatar
    Login

    Hourly Weather Biryukov

    Today, 25 August, Sunday

    Time Temperature Precipitation Wind Pressure Humidity
    00:00 +22°C° 0 mm 4 mps 760 mmHg 59%
    01:00 +21°C° 0 mm 4 mps 760 mmHg 60%
    02:00 +21°C° 0 mm 4 mps 760 mmHg 60%
    03:00 +20°C° 0 mm 4 mps 760 mmHg 60%
    04:00 +20°C° 0 mm 5 mps 760 mmHg 59%
    05:00 +20°C° 0 mm 5 mps 760 mmHg 57%
    06:00 +20°C° 0 mm 5 mps 760 mmHg 56%
    07:00 +22°C° 0 mm 5 mps 760 mmHg 49%
    08:00 +25°C° 0 mm 5 mps 761 mmHg 42%
    09:00 +27°C° 0 mm 5 mps 761 mmHg 33%
    10:00 +28°C° 0 mm 5 mps 761 mmHg 29%
    11:00 +29°C° 0 mm 5 mps 760 mmHg 24%
    12:00 +30°C° 0 mm 4 mps 760 mmHg 20%
    13:00 +32°C° 0 mm 5 mps 760 mmHg 20%
    14:00 +32°C° 0 mm 5 mps 760 mmHg 20%
    15:00 +32°C° 0 mm 5 mps 760 mmHg 21%
    16:00 +30°C° 0 mm 5 mps 760 mmHg 23%
    17:00 +30°C° 0 mm 4 mps 760 mmHg 24%
    18:00 +29°C° 0 mm 4 mps 760 mmHg 26%
    19:00 +27°C° 0 mm 4 mps 761 mmHg 32%
    20:00 +26°C° 0 mm 4 mps 761 mmHg 38%
    21:00 +23°C° 0 mm 5 mps 762 mmHg 44%
    22:00 +22°C° 0 mm 5 mps 762 mmHg 47%
    23:00 +21°C° 0 mm 6 mps 762 mmHg 51%

    Tomorrow, 26 August, Monday

    Time Temperature Precipitation Wind Pressure Humidity
    00:00 +20°C° 0 mm 6 mps 762 mmHg 54%
    01:00 +19°C° 0 mm 6 mps 763 mmHg 58%
    02:00 +17°C° 0 mm 6 mps 763 mmHg 62%
    03:00 +16°C° 0 mm 5 mps 764 mmHg 66%
    04:00 +16°C° 0 mm 5 mps 764 mmHg 66%
    05:00 +16°C° 0 mm 5 mps 764 mmHg 67%
    06:00 +15°C° 0 mm 5 mps 764 mmHg 68%
    07:00 +17°C° 0 mm 6 mps 764 mmHg 63%
    08:00 +19°C° 0 mm 6 mps 765 mmHg 58%
    09:00 +20°C° 0 mm 6 mps 765 mmHg 52%
    10:00 +22°C° 0 mm 6 mps 765 mmHg 46%
    11:00 +23°C° 0 mm 6 mps 765 mmHg 39%
    12:00 +24°C° 0 mm 6 mps 765 mmHg 32%
    13:00 +26°C° 0 mm 5 mps 765 mmHg 29%
    14:00 +26°C° 0 mm 5 mps 765 mmHg 27%
    15:00 +27°C° 0 mm 5 mps 765 mmHg 24%
    16:00 +26°C° 0 mm 4 mps 765 mmHg 26%
    17:00 +25°C° 0 mm 4 mps 765 mmHg 27%
    18:00 +25°C° 0 mm 3 mps 764 mmHg 29%
    19:00 +22°C° 0 mm 3 mps 765 mmHg 33%
    20:00 +21°C° 0 mm 3 mps 765 mmHg 37%
    21:00 +19°C° 0 mm 3 mps 765 mmHg 41%
    22:00 +18°C° 0 mm 3 mps 765 mmHg 44%
    23:00 +18°C° 0 mm 2 mps 765 mmHg 47%

    Day after tomorrow, 27 August, Tuesday

    Time Temperature Precipitation Wind Pressure Humidity
    00:00 +17°C° 0 mm 2 mps 764 mmHg 50%
    01:00 +16°C° 0 mm 2 mps 764 mmHg 53%
    02:00 +16°C° 0 mm 2 mps 764 mmHg 55%
    03:00 +15°C° 0 mm 1 mps 764 mmHg 57%
    04:00 +16°C° 0 mm 1 mps 764 mmHg 56%
    05:00 +16°C° 0 mm 1 mps 763 mmHg 55%
    06:00 +18°C° 0 mm 1 mps 763 mmHg 54%
    07:00 +19°C° 0 mm 2 mps 763 mmHg 47%
    08:00 +21°C° 0 mm 2 mps 762 mmHg 41%
    09:00 +24°C° 0 mm 3 mps 762 mmHg 34%
    10:00 +25°C° 0 mm 3 mps 762 mmHg 31%
    11:00 +26°C° 0 mm 4 mps 761 mmHg 28%
    12:00 +27°C° 0 mm 5 mps 760 mmHg 25%
    13:00 +27°C° 0 mm 5 mps 760 mmHg 25%
    14:00 +27°C° 0 mm 5 mps 759 mmHg 24%
    15:00 +27°C° 0 mm 6 mps 758 mmHg 24%
    16:00 +26°C° 0 mm 5 mps 758 mmHg 26%
    17:00 +26°C° 0 mm 5 mps 757 mmHg 28%
    18:00 +25°C° 0 mm 4 mps 757 mmHg 29%
    19:00 +23°C° 0 mm 4 mps 756 mmHg 33%
    20:00 +22°C° 0 mm 4 mps 756 mmHg 37%
    21:00 +21°C° 0 mm 3 mps 756 mmHg 41%
    22:00 +20°C° 0.4 mm 4 mps 755 mmHg 45%
    23:00 +20°C° 0.4 mm 5 mps 755 mmHg 50%

    28 August, Wednesday

    Time Temperature Precipitation Wind Pressure Humidity
    00:00 +20°C° 0.4 mm 6 mps 754 mmHg 54%
    01:00 +19°C° 0.5 mm 6 mps 754 mmHg 63%
    02:00 +17°C° 0.5 mm 6 mps 753 mmHg 71%
    03:00 +16°C° 0.5 mm 5 mps 753 mmHg 79%
    04:00 +15°C° 0 mm 6 mps 753 mmHg 78%
    05:00 +15°C° 0 mm 6 mps 753 mmHg 77%
    06:00 +15°C° 0 mm 7 mps 753 mmHg 76%
    07:00 +15°C° 0 mm 7 mps 753 mmHg 68%
    08:00 +16°C° 0 mm 8 mps 753 mmHg 60%
    09:00 +16°C° 0 mm 9 mps 754 mmHg 53%
    10:00 +16°C° 0 mm 9 mps 754 mmHg 49%
    11:00 +16°C° 0 mm 9 mps 754 mmHg 46%
    12:00 +16°C° 0 mm 10 mps 754 mmHg 42%
    13:00 +16°C° 0 mm 9 mps 755 mmHg 44%
    14:00 +16°C° 0 mm 9 mps 755 mmHg 45%
    15:00 +16°C° 0 mm 9 mps 755 mmHg 46%
    16:00 +16°C° 0 mm 9 mps 755 mmHg 45%
    17:00 +16°C° 0 mm 8 mps 755 mmHg 45%
    18:00 +16°C° 0 mm 7 mps 756 mmHg 45%
    19:00 +15°C° 0 mm 7 mps 756 mmHg 49%
    20:00 +14°C° 0 mm 7 mps 756 mmHg 54%
    21:00 +12°C° 0 mm 7 mps 756 mmHg 58%
    22:00 +12°C° 0 mm 7 mps 756 mmHg 59%
    23:00 +12°C° 0 mm 7 mps 756 mmHg 61%

    29 August, Thursday

    Time Temperature Precipitation Wind Pressure Humidity
    00:00 +12°C° 0 mm 7 mps 756 mmHg 62%
    01:00 +11°C° 0 mm 7 mps 756 mmHg 64%
    02:00 +11°C° 0 mm 7 mps 756 mmHg 65%
    03:00 +10°C° 0 mm 7 mps 756 mmHg 66%
    04:00 +10°C° 0 mm 7 mps 756 mmHg 66%
    05:00 +11°C° 0 mm 8 mps 757 mmHg 67%
    06:00 +11°C° 0 mm 8 mps 757 mmHg 67%
    07:00 +11°C° 0 mm 8 mps 757 mmHg 64%
    08:00 +12°C° 0 mm 8 mps 758 mmHg 61%
    09:00 +13°C° 0 mm 8 mps 758 mmHg 59%
    10:00 +13°C° 0 mm 8 mps 758 mmHg 57%
    11:00 +13°C° 0 mm 8 mps 758 mmHg 56%
    12:00 +13°C° 0 mm 8 mps 759 mmHg 54%
    13:00 +15°C° 0 mm 8 mps 759 mmHg 52%
    14:00 +15°C° 0 mm 8 mps 759 mmHg 49%
    15:00 +16°C° 0 mm 8 mps 759 mmHg 47%
    16:00 +15°C° 0 mm 7 mps 759 mmHg 47%
    17:00 +15°C° 0 mm 7 mps 759 mmHg 47%
    18:00 +15°C° 0 mm 7 mps 760 mmHg 47%
    19:00 +14°C° 0 mm 7 mps 760 mmHg 49%
    20:00 +13°C° 0 mm 6 mps 760 mmHg 52%
    21:00 +11°C° 0 mm 6 mps 760 mmHg 55%
    22:00 +10°C° 0 mm 6 mps 760 mmHg 55%
    23:00 +10°C° 0 mm 5 mps 761 mmHg 55%

    30 August, Friday

    Time Temperature Precipitation Wind Pressure Humidity
    00:00 +9°C° 0 mm 5 mps 761 mmHg 56%
    01:00 +9°C° 0 mm 5 mps 761 mmHg 59%
    02:00 +8°C° 0 mm 5 mps 761 mmHg 62%
    03:00 +8°C° 0 mm 5 mps 761 mmHg 65%
    04:00 +7°C° 0 mm 5 mps 761 mmHg 65%
    05:00 +7°C° 0 mm 5 mps 761 mmHg 66%
    06:00 +7°C° 0 mm 6 mps 761 mmHg 67%
    07:00 +9°C° 0 mm 6 mps 761 mmHg 63%
    08:00 +10°C° 0 mm 6 mps 761 mmHg 58%
    09:00 +13°C° 0 mm 6 mps 761 mmHg 54%
    10:00 +14°C° 0 mm 6 mps 761 mmHg 50%
    11:00 +15°C° 0 mm 6 mps 761 mmHg 46%
    12:00 +17°C° 0 mm 6 mps 761 mmHg 43%
    13:00 +17°C° 0 mm 6 mps 761 mmHg 43%
    14:00 +16°C° 0 mm 5 mps 761 mmHg 44%
    15:00 +16°C° 0 mm 5 mps 761 mmHg 45%
    16:00 +16°C° 0 mm 5 mps 761 mmHg 46%
    17:00 +15°C° 0 mm 5 mps 761 mmHg 48%
    18:00 +15°C° 0 mm 4 mps 761 mmHg 49%
    19:00 +14°C° 0.1 mm 4 mps 762 mmHg 55%
    20:00 +13°C° 0.1 mm 4 mps 762 mmHg 61%
    21:00 +13°C° 0.1 mm 4 mps 762 mmHg 67%
    22:00 +12°C° 0 mm 4 mps 762 mmHg 71%
    23:00 +10°C° 0 mm 5 mps 762 mmHg 74%
    Show more